Meteo Giornale » Osservazioni meteo Macao » Taipa
ore: 03:30 - Osservazioni Meteo Taipa
Lat. 22° 10' N Lon. 113° 34' E Alt. 114 metri s.l.m.
26 °C
Nuvoloso
Temp. 24 Ore
26 °C
29 °C
Nord-Ovest
27.8 Km/h
Dew point 22 °C
Umidità 78 %
Visibilità 10 Km
Il sole sorge alle ore 06:08
Il sole tramonta alle ore 18:42
| Data e Ora | Cielo e Fenomeni | T °C | DP °C | Um. % | Pres. hPa | Vis. km | Vento km/h | |
|---|---|---|---|---|---|---|---|---|
| Oggi h: 03:30 | Nuvoloso | 26 | 22 | 78 | 998 | 10 | NO 27.8 | |
| Oggi h: 03:00 | Nuvoloso | 26 | 22 | 78 | 998 | 10 | NO 27.8 | |
| Oggi h: 02:30 | Nuvoloso | 26 | 22 | 78 | 998 | 10 | NO 27.8 | |
| Oggi h: 02:00 | Nuvoloso | 26 | 22 | 78 | 998 | 10 | NO 25.9 | |
| Oggi h: 01:30 | Nuvoloso | 26 | 22 | 78 | 999 | 10 | NO 25.9 | |
| Oggi h: 01:00 | Nuvoloso | 26 | 22 | 78 | 999 | 10 | N/NO 29.6 | |
| Oggi h: 00:30 | Nuvoloso | 27 | 22 | 74 | 999 | 10 | N/NO 25.9 | |
| Oggi h: 00:00 | Nuvoloso | 26 | 22 | 78 | 999 | 10 | N/NO 31.5 | |
| Ieri h: 23:30 | Nuvoloso | 27 | 22 | 74 | 999 | 10 | N/NO 27.8 | |
| Ieri h: 23:00 | Nuvoloso | 27 | 23 | 78 | 998 | 10 | NO 27.8 | |
| Ieri h: 22:30 | Nuvoloso | 28 | 23 | 74 | 998 | 10 | NO 29.6 | |
| Ieri h: 22:00 | Poco Nuvoloso | 28 | 23 | 74 | 998 | 10 | N/NO 29.6 | |
| Ieri h: 21:30 | Poco Nuvoloso | 27 | 23 | 78 | 998 | 10 | N/NO 33.3 | |
| Ieri h: 21:00 | Poco Nuvoloso | 27 | 24 | 83 | 998 | 10 | N/NO 29.6 | |
| Ieri h: 20:30 | Poco Nuvoloso | 28 | 24 | 78 | 997 | 10 | N/NO 27.8 | |
| Ieri h: 20:00 | Nuvoloso | 28 | 25 | 83 | 997 | 10 | N/NO 25.9 | |
| Ieri h: 19:30 | Nuvoloso | 27 | 25 | 88 | 997 | 10 | N/NO 29.6 | |
| Ieri h: 19:00 | Nuvoloso | 27 | 25 | 88 | 997 | 10 | N/NO 29.6 | |
| Ieri h: 18:30 | Nuvoloso | 28 | 25 | 83 | 996 | 10 | N/NO 27.8 | |
| Ieri h: 18:00 | Nuvoloso | 27 | 26 | 94 | 996 | 10 | N/NO 29.6 | |
| Ieri h: 17:42 | Pioggia | 27 | 26 | 94 | 996 | 10 | N/NO 25.9 | |
| Ieri h: 17:34 | Pioggia | 26 | 26 | 100 | 996 | 10 | N/NO 22.2 | |
| Ieri h: 17:30 | Pioggia | 29 | 26 | 83 | 996 | 3 | N 9.3 | |
| Ieri h: 17:18 | Pioggia | 29 | 26 | 83 | 996 | 3 | N 9.3 | |
| Ieri h: 17:00 | Nuvoloso | 29 | 26 | 83 | 996 | 10 | N 14.8 | |
| Ieri h: 16:30 | Nuvoloso | 29 | 26 | 83 | 996 | 10 | N 22.2 | |
| Ieri h: 16:00 | Nuvoloso | 29 | 26 | 83 | 996 | 10 | N 25.9 | |
| Ieri h: 15:30 | Nuvoloso | 29 | 26 | 83 | 996 | 10 | N 29.6 | |
| Ieri h: 15:00 | Nuvoloso | 28 | 25 | 83 | 996 | 10 | N/NE 29.6 | |
| Ieri h: 14:30 | Pioggia | 28 | 26 | 88 | 996 | 10 | N/NE 29.6 | |
| Ieri h: 14:00 | Pioggia | 28 | 26 | 88 | 996 | 9 | N 29.6 | |
| Ieri h: 13:30 | Pioggia | 27 | 26 | 94 | 997 | 8 | N/NE 37 | |
| Ieri h: 13:00 | Pioggia | 27 | 26 | 94 | 997 | 6 | N/NE 33.3 | |
| Ieri h: 12:30 | Nuvoloso | 28 | 26 | 88 | 997 | 10 | N/NE 29.6 | |
| Ieri h: 12:00 | Nuvoloso | 28 | 26 | 88 | 998 | 10 | N/NE 29.6 | |
| Ieri h: 11:30 | Nuvoloso | 28 | 26 | 88 | 998 | 10 | N 31.5 | |
| Ieri h: 11:00 | Nuvoloso | 27 | 26 | 94 | 998 | 10 | N 25.9 | |
| Ieri h: 10:30 | Nuvoloso | 27 | 25 | 88 | 998 | 10 | N 29.6 | |
| Ieri h: 10:00 | Nuvoloso | 27 | 25 | 88 | 998 | 10 | N 27.8 | |
| Ieri h: 09:30 | Pioggia | 26 | 25 | 94 | 998 | 8 | N 29.6 | |
| Ieri h: 09:00 | Pioggia | 27 | 25 | 88 | 998 | 7 | N 27.8 | |
| Ieri h: 08:30 | Pioggia | 27 | 25 | 88 | 998 | 6 | N 29.6 | |
| Ieri h: 08:00 | Pioggia | 26 | 25 | 94 | 998 | 8 | N 24 | |
| Ieri h: 07:39 | Pioggia | 26 | 25 | 94 | 997 | 10 | NO 16.7 | |
| Ieri h: 07:30 | Pioggia | 26 | 25 | 94 | 998 | 4 | N/NO 18.5 | |
| Ieri h: 07:00 | Pioggia | 26 | 25 | 94 | 997 | 8 | N/NO 16.7 | |
| Ieri h: 06:30 | Pioggia | 26 | 25 | 94 | 997 | 4 | N/NO 22.2 | |
| Ieri h: 06:00 | Pioggia | 27 | 25 | 88 | 997 | 10 | N/NO 22.2 | |
| Ieri h: 05:30 | Pioggia | 27 | 25 | 88 | 997 | 10 | N/NO 18.5 | |
| Ieri h: 05:00 | Nuvoloso | 27 | 25 | 88 | 997 | 10 | N/NO 20.3 | |



